Hettinger, ND

4:37 AM MST on February 08, 2016 (GMT -0700)
Hettinger Municipal

Weather History for KHEI - January, 2012

Change the Weather History Date:

Friday, January 20, 2012

  Actual Average Record
Temperature  
Mean Temperature 3 °F -  
Max Temperature 9 °F 28 °F 53 °F (2005)
Min Temperature -3 °F 6 °F -14 °F (2008)
Degree Days  
Heating Degree Days 62 48  
Month to date heating degree days 873 975  
Since 1 July heating degree days 3981 4554  
Moisture  
Dew Point -3 °F    
Average Humidity 77    
Maximum Humidity 87    
Minimum Humidity 63    
Precipitation  
Precipitation 0.05 in 0.01 in 0.05 in (2003)
Month to date precipitation 0.10 0.19  
Year to date precipitation 0.10 0.19  
Sea Level Pressure  
Sea Level Pressure 29.98 in    
Wind  
Wind Speed 6 mph (ENE)    
Max Wind Speed 14 mph    
Max Gust Speed 18 mph    
Visibility 6 miles    
Events Snow    
T = Trace of Precipitation, MM = Missing Value Source: NWS Daily Summary

Daily Weather History Graph

Daily Weather History Graph

Search for Another Location

Airport or City:

Trip Planner

Search our weather history database for the weather conditions in past years. The results will help you decide how hot, cold, wet, or windy it might be!

Date:

Astronomy

Jan. 20, 2012 Rise Set
Actual Time 7:25 AM MST 4:38 PM MST
Civil Twilight 6:52 AM MST 5:11 PM MST
Nautical Twilight 6:15 AM MST 5:47 PM MST
Astronomical Twilight 5:40 AM MST 6:23 PM MST
Moon 5:08 AM MST (1/20) 2:08 PM MST (1/20)
Length of Visible Light 10h 18m
Length of Day
9h 12m
Waning Crescent, 8% of the Moon is Illuminated
Jan 20
Waning Crescent
Jan 23
New
Jan 30
First Quarter
Feb 7
Full
Feb 14
Last Quarter

Hourly Weather History & Observations

Time (MST) Temp. Windchill Dew Point Humidity Pressure Visibility Wind Dir Wind Speed Gust Speed Precip Events Conditions
12:00 AM 1.4 °F -11.3 °F -2.2 °F 85% 29.76 in 2.0 mi ESE 6.9 mph - 0.01 in Snow Light Snow
12:17 AM 1.4 °F -12.5 °F -4.0 °F 78% 29.76 in 1.5 mi ESE 8.1 mph - 0.01 in Snow Light Snow
12:53 AM 1.9 °F -9.2 °F -4.0 °F 76% 29.96 in 1.5 mi East 5.8 mph - 0.02 in Snow Light Snow
1:08 AM 1.4 °F -9.9 °F -4.0 °F 78% 29.78 in 2.0 mi East 5.8 mph - 0.00 in Snow Light Snow
1:18 AM 1.4 °F -9.9 °F -2.2 °F 85% 29.78 in 4.0 mi ENE 5.8 mph - 0.00 in Snow Light Snow
1:31 AM 1.4 °F -8.3 °F -4.0 °F 78% 29.78 in 2.5 mi East 4.6 mph - 0.00 in Snow Light Snow
1:42 AM 1.4 °F -8.3 °F -2.2 °F 85% 29.77 in 4.0 mi East 4.6 mph - 0.00 in Snow Light Snow
1:53 AM 1.9 °F -5.6 °F -2.9 °F 80% 29.96 in 2.0 mi East 3.5 mph - 0.00 in Snow Light Snow
2:06 AM 1.4 °F -8.3 °F -2.2 °F 85% 29.78 in 3.0 mi East 4.6 mph - 0.01 in Snow Light Snow
2:15 AM 1.4 °F -8.3 °F -2.2 °F 85% 29.78 in 2.0 mi ENE 4.6 mph - 0.01 in Snow Light Snow
2:53 AM 1.9 °F -7.6 °F -2.9 °F 80% 29.98 in 3.0 mi ENE 4.6 mph - 0.01 in Snow Light Snow
3:00 AM 1.4 °F -9.9 °F -4.0 °F 78% 29.80 in 2.0 mi NE 5.8 mph - 0.01 in Snow Light Snow
3:32 AM 1.4 °F -9.9 °F -4.0 °F 78% 29.81 in 5.0 mi ENE 5.8 mph - 0.01 in Snow Light Snow
3:53 AM 3.0 °F -8.0 °F -2.9 °F 76% 30.00 in 10.0 mi ENE 5.8 mph - 0.01 in   Overcast
4:21 AM 3.2 °F -9.1 °F -2.2 °F 78% 29.82 in 2.0 mi NE 6.9 mph - 0.00 in Snow Light Snow
4:35 AM 3.2 °F -6.2 °F -2.2 °F 78% 29.83 in 1.8 mi NE 4.6 mph - 0.00 in Snow Light Snow
4:53 AM 3.0 °F -6.4 °F -2.0 °F 80% 30.02 in 1.5 mi NE 4.6 mph - 0.00 in Snow Light Snow
5:08 AM 3.2 °F -4.2 °F -2.2 °F 78% 29.85 in 2.0 mi NNE 3.5 mph - 0.00 in Snow Light Snow
5:15 AM 3.2 °F -4.2 °F -2.2 °F 78% 29.86 in 1.8 mi NNE 3.5 mph - 0.00 in Snow Light Snow
5:22 AM 3.2 °F -6.2 °F -2.2 °F 78% 29.85 in 2.0 mi NNE 4.6 mph - 0.00 in Snow Light Snow
5:32 AM 3.2 °F -9.1 °F -2.2 °F 78% 29.85 in 7.0 mi NE 6.9 mph - 0.00 in Snow Light Snow
5:53 AM 3.0 °F -10.5 °F -2.9 °F 76% 30.05 in 5.0 mi NNE 8.1 mph - 0.00 in Snow Light Snow
6:08 AM 3.2 °F -10.3 °F -2.2 °F 78% 29.87 in 2.5 mi NNE 8.1 mph - 0.00 in Snow Light Snow
6:27 AM 3.2 °F -11.3 °F -2.2 °F 78% 29.88 in 1.8 mi NNE 9.2 mph - 0.00 in Snow Light Snow
6:35 AM 1.4 °F -12.5 °F -2.2 °F 85% 29.88 in 2.5 mi NE 8.1 mph - 0.00 in Snow Light Snow
6:53 AM 1.9 °F -9.2 °F -2.9 °F 80% 30.09 in 2.0 mi NNE 5.8 mph - 0.01 in Snow Light Snow
7:10 AM 1.4 °F -11.3 °F -2.2 °F 85% 29.90 in 7.0 mi NNE 6.9 mph - 0.00 in Snow Light Snow
7:17 AM 1.4 °F -11.3 °F -2.2 °F 85% 29.91 in 10.0 mi NNE 6.9 mph - 0.00 in   Overcast
7:51 AM 1.4 °F -6.2 °F -4.0 °F 78% 29.93 in 3.0 mi NNE 3.5 mph - 0.00 in Snow Light Snow
7:53 AM 1.0 °F -6.7 °F -4.0 °F 79% 30.13 in 4.0 mi NNE 3.5 mph - 0.00 in Snow Light Snow
8:07 AM -0.4 °F -8.3 °F -5.8 °F 78% 29.94 in 10.0 mi North 3.5 mph - 0.00 in   Scattered Clouds
8:53 AM 3.0 °F -8.0 °F -4.0 °F 73% 30.17 in 10.0 mi North 5.8 mph - 0.00 in   Partly Cloudy
9:53 AM 3.0 °F -10.5 °F -2.9 °F 76% 30.21 in 10.0 mi North 8.1 mph - N/A   Overcast
10:53 AM 6.1 °F -4.3 °F -2.0 °F 69% 30.21 in 10.0 mi North 5.8 mph - N/A   Overcast
11:53 AM 7.0 °F -1.7 °F -2.9 °F 64% 30.21 in 10.0 mi North 4.6 mph - N/A   Overcast
12:53 PM 7.0 °F 0.1 °F -2.9 °F 64% 30.21 in 10.0 mi NW 3.5 mph - N/A   Overcast
1:53 PM 8.1 °F - -2.0 °F 64% 30.20 in 10.0 mi Calm Calm - N/A   Overcast
2:53 PM 9.0 °F - -2.0 °F 61% 30.18 in 10.0 mi Calm Calm - N/A   Partly Cloudy
3:53 PM 8.1 °F - -2.0 °F 64% 30.19 in 10.0 mi Calm Calm - N/A   Clear
4:53 PM 3.9 °F -6.9 °F -4.0 °F 70% 30.20 in 10.0 mi SSE 5.8 mph - N/A   Clear
5:53 PM -0.0 °F -9.9 °F -5.1 °F 79% 30.21 in 10.0 mi SE 4.6 mph - N/A   Clear
6:53 PM 1.9 °F -11.8 °F -4.0 °F 76% 30.16 in 10.0 mi SE 8.1 mph - N/A   Clear
7:53 PM -0.0 °F -14.2 °F -5.1 °F 79% 30.17 in 10.0 mi SSE 8.1 mph - N/A   Clear
8:53 PM -0.0 °F -15.3 °F -5.1 °F 79% 30.14 in 10.0 mi SSE 9.2 mph - N/A   Clear
9:53 PM -2.0 °F -16.6 °F -7.1 °F 79% 30.13 in 10.0 mi SE 8.1 mph - N/A   Clear
10:53 PM -0.9 °F -17.4 °F -6.0 °F 79% 30.06 in 10.0 mi SSE 10.4 mph - N/A   Clear
11:53 PM 1.9 °F -14.7 °F -4.0 °F 76% 30.01 in 10.0 mi SSE 11.5 mph - N/A   Overcast